Weather in Pomos'yal

Russia / Mari El Republic     56°52′43″N   49°23′57″E
temp.,
°C
wind,
m/s
gust,
m/s
humid.,
%
clouds,
%
prec.,
mm/h
press.,
hPa
HPBL,
m
1 august, sun
sun100:00+17sw368924 0.0 100687
03:00+17sw48850 0.0 1006154
06:00+18w410770 0.0 1008304
09:00+23w695226 0.0 10091269
12:00+25w794631 0.0 10102090
15:00+26w694179 0.0 10102361
18:00+23w365597 0.0 1011170
21:00+20wsw346134 0.0 101159
2 august, mon
mon200:00+18wsw336989 0.0 101240
03:00+18sw366957 0.0 1012136
06:00+19sw48686 0.0 1013236
09:00+25sw574841 0.0 1013718
12:00+28ssw4642100 0.0 10121176
15:00+29sw61040100 0.0 10111908
18:00+27wsw25556 0.0 1010121
21:00+23s34665 0.0 101060
3 august, tue
tue300:00+21sw376911 0.0 1010108
03:00+19sse227363 0.1 101013
06:00+20sse487267 0.4 1009145
09:00+28s612445 0.4 1008558
12:00+33ssw7103264 0.0 10071783
15:00+33sw793269 0.0 10062297
18:00+20wnw10188281 0.8 1008433
21:00+20sse358181 1.6 100778
4 august, wed
wed400:00+19sw36885 0.0 1008102
03:00+17w2390100 0.0 100856
06:00+17w4998100 11.0 1009318
09:00+19w3587100 12.3 1010393
12:00+23w5571100 0.2 1010931
15:00+24w3462100 0.6 10111246
18:00+20nw3580100 1.2 1011113
21:00+17nw238629 1.2 101226
5 august, thu
thu500:00+16wnw348911 0.0 101449
03:00+15nw37823 0.0 1014141
06:00+15nw38835 0.0 1015214
09:00+21nw565134 0.0 1016771
12:00+23nw6640100 0.0 10161754
15:00+23nw55390 0.0 10151989
18:00+20nw585011 0.0 1016467
21:00+14nnw485698 0.0 1017139